Weather History for Baltimore Martin, MD

Change the Weather History Date:

Sunday, August 4, 2013

  Actual Average Record
Temperature  
Mean Temperature 72 °F -  
Max Temperature 82 °F 82 °F 96 °F (2007)
Min Temperature 62 °F 67 °F 62 °F (1998)
Cooling Degree Days 7    
Growing Degree Days 22 (Base 50)    
Moisture  
Dew Point 60 °F    
Average Humidity 74    
Maximum Humidity 100    
Minimum Humidity 39    
Precipitation  
Precipitation 0.00 in - - ()
Sea Level Pressure  
Sea Level Pressure 29.95 in    
Wind  
Wind Speed 5 mph (WNW)    
Max Wind Speed 20 mph    
Max Gust Speed 30 mph    
Visibility 10 miles    
Events      
Averages and records for this station are not official NWS values.
T = Trace of Precipitation, MM = Missing Value Source: NWS Daily Summary

Daily Weather History Graph

Daily Weather History Graph

Search for Another Location

Airport:

Trip Planner

Search our weather history database for the weather conditions in past years. The results will help you decide how hot, cold, wet, or windy it might be!

Date:

Astronomy

Aug. 04, 2013 Rise Set
Actual Time 6:08 AM EDT 8:14 PM EDT
Civil Twilight 5:38 AM EDT 8:43 PM EDT
Nautical Twilight 5:02 AM EDT 9:19 PM EDT
Astronomical Twilight 4:23 AM EDT 9:59 PM EDT
Moon 4:07 AM EDT (8/4) 6:35 PM EDT (8/4)
Length of Visible Light 15h 04m
Length of Day
14h 05m
Waning Crescent, 5% of the Moon is Illuminated
Aug 4
Waning Crescent
Aug 6
New
Aug 14
First Quarter
Aug 20
Full
Aug 28
Last Quarter

Hourly Weather History & Observations

Time (EDT) Temp. Heat Index Dew Point Humidity Pressure Visibility Wind Dir Wind Speed Gust Speed Precip Events Conditions
12:03 AM 68.0 °F - 64.4 °F 88% 29.94 in 10.0 mi SW 3.5 mph - N/A   Clear
12:21 AM 68.0 °F - 64.4 °F 88% 29.93 in 10.0 mi WSW 3.5 mph - N/A   Clear
12:42 AM 68.0 °F - 64.4 °F 88% 29.92 in 10.0 mi Calm Calm - N/A   Clear
1:03 AM 66.2 °F - 64.4 °F 94% 29.92 in 7.0 mi Calm Calm - N/A   Clear
1:21 AM 64.4 °F - 64.4 °F 100% 29.92 in 7.0 mi Calm Calm - N/A   Clear
1:42 AM 68.0 °F - 66.2 °F 94% 29.92 in 10.0 mi SW 3.5 mph - N/A   Clear
2:03 AM 66.2 °F - 64.4 °F 94% 29.92 in 10.0 mi WSW 3.5 mph - N/A   Clear
2:21 AM 66.2 °F - 64.4 °F 94% 29.92 in 10.0 mi West 3.5 mph - N/A   Mostly Cloudy
2:42 AM 66.2 °F - 64.4 °F 94% 29.91 in 7.0 mi West 4.6 mph - N/A   Mostly Cloudy
3:03 AM 66.2 °F - 64.4 °F 94% 29.91 in 7.0 mi Calm Calm - N/A   Scattered Clouds
3:21 AM 64.4 °F - 64.4 °F 100% 29.91 in 7.0 mi Calm Calm - N/A   Clear
3:42 AM 68.0 °F - 64.4 °F 88% 29.90 in 10.0 mi NW 5.8 mph - N/A   Clear
4:03 AM 68.0 °F - 64.4 °F 88% 29.90 in 10.0 mi NW 5.8 mph - N/A   Scattered Clouds
4:21 AM 68.0 °F - 62.6 °F 83% 29.90 in 10.0 mi WNW 11.5 mph - N/A   Scattered Clouds
4:42 AM 66.2 °F - 62.6 °F 88% 29.91 in 10.0 mi WNW 8.1 mph - N/A   Clear
5:03 AM 62.6 °F - 60.8 °F 94% 29.91 in 10.0 mi WNW 6.9 mph - N/A   Clear
5:21 AM 62.6 °F - 60.8 °F 94% 29.92 in 10.0 mi WNW 6.9 mph - N/A   Clear
5:30 AM 64.4 °F - 60.8 °F 88% 29.92 in 10.0 mi WNW 5.8 mph - N/A   Clear
5:55 AM 64.4 °F - 60.8 °F 88% 29.92 in 10.0 mi NNW 3.5 mph - N/A   Scattered Clouds
6:45 AM 66.2 °F - 60.8 °F 83% 29.94 in 10.0 mi NW 6.9 mph - N/A   Scattered Clouds
7:55 AM 69.8 °F - 60.8 °F 73% 29.96 in 10.0 mi NW 6.9 mph - N/A   Partly Cloudy
8:45 AM 71.6 °F - 60.8 °F 69% 29.96 in 10.0 mi NW 9.2 mph - N/A   Partly Cloudy
9:50 AM 73.4 °F - 60.8 °F 65% 29.97 in 10.0 mi NW 11.5 mph 17.3 mph N/A   Clear
10:50 AM 77.0 °F - 59.0 °F 54% 29.97 in 10.0 mi NW 9.2 mph - N/A   Partly Cloudy
11:45 AM 78.8 °F - 60.8 °F 54% 29.97 in 10.0 mi NNW 8.1 mph - N/A   Scattered Clouds
12:55 PM 80.6 °F 81.1 °F 59.0 °F 48% 29.96 in 10.0 mi NW 13.8 mph 23.0 mph N/A   Scattered Clouds
1:50 PM 80.6 °F 80.8 °F 57.2 °F 45% 29.96 in 10.0 mi NW 16.1 mph 25.3 mph N/A   Scattered Clouds
2:45 PM 82.4 °F 81.7 °F 55.4 °F 39% 29.94 in 10.0 mi NW 17.3 mph 25.3 mph N/A   Scattered Clouds
4:45 PM 80.6 °F 80.5 °F 55.4 °F 42% 29.95 in 10.0 mi WNW 19.6 mph 26.5 mph N/A   Scattered Clouds
5:55 PM 78.8 °F - 53.6 °F 42% 29.96 in 10.0 mi NW 12.7 mph 29.9 mph N/A   Partly Cloudy
6:55 PM 78.8 °F - 53.6 °F 42% 29.96 in 10.0 mi WNW 11.5 mph 17.3 mph N/A   Partly Cloudy
7:45 PM 73.4 °F - 55.4 °F 53% 29.98 in 10.0 mi WNW 4.6 mph - N/A   Partly Cloudy
8:45 PM 71.6 °F - 55.4 °F 57% 29.99 in 10.0 mi Calm Calm - N/A   Partly Cloudy
9:45 PM 69.8 °F - 55.4 °F 60% 30.01 in 10.0 mi Calm Calm - N/A   Partly Cloudy
10:24 PM 68.0 °F - 55.4 °F 64% 30.02 in 10.0 mi Calm Calm - N/A   Clear
10:45 PM 68.0 °F - 55.4 °F 64% 30.02 in 10.0 mi Calm Calm - N/A   Clear
11:03 PM 66.2 °F - 55.4 °F 68% 30.03 in 10.0 mi Calm Calm - N/A   Clear
11:24 PM 66.2 °F - 55.4 °F 68% 30.03 in 10.0 mi Calm Calm - N/A   Clear
11:45 PM 64.4 °F - 55.4 °F 73% 30.03 in 10.0 mi West 3.5 mph - N/A   Clear